Location: Blackrock Ranger Station
(36.0936°N, 118.2611°W)
Time: 21:58:49
(UTC-07:00)

KKS-1 - Visible Passes

Search period start: 15 May 2026 00:00
Search period end: 25 May 2026 00:00
Orbit: 614 x 626 km, 98.1° (Epoch: 15 May)

Date Brightness Start Highest point End Pass type
(mag) Time Alt. Az. Time Alt. Az. Time Alt. Az.
15 May ? 01:32:28 10° N 01:34:09 23° N 01:34:09 23° N visible
16 May ? 01:49:44 10° N 01:51:35 24° N 01:51:35 24° N visible
17 May ? 02:07:09 10° N 02:09:00 22° NNW 02:09:00 22° NNW visible
18 May ? 00:48:24 10° NE 00:49:16 15° NE 00:49:16 15° NE visible
18 May ? 02:24:46 10° NNW 02:26:25 17° NW 02:26:25 17° NW visible
19 May ? 01:05:13 10° NNE 01:06:40 20° NE 01:06:40 20° NE visible
19 May ? 02:42:46 10° NW 02:43:50 13° NW 02:43:50 13° NW visible
20 May ? 01:22:13 10° NNE 01:24:05 25° NNE 01:24:05 25° NNE visible
21 May ? 01:39:23 10° N 01:41:30 28° N 01:41:30 28° N visible
22 May ? 01:56:42 10° N 01:58:54 27° NNW 01:58:54 27° NNW visible
23 May ? 00:38:29 10° NE 00:39:09 13° NE 00:39:09 13° NE visible
23 May ? 02:14:10 10° NNW 02:16:18 22° NW 02:16:18 22° NW visible
24 May ? 00:55:08 10° NNE 00:56:33 19° NE 00:56:33 19° NE visible
24 May ? 02:31:52 10° NNW 02:33:42 17° NW 02:33:42 17° NW visible
